Queensbury, NY

6:32 PM EST on February 27, 2017 (GMT -0500)
Bennett Memorial

Weather History for KGFL - March, 2013

Change the Weather History Date:

Thursday, March 7, 2013

  Actual Average Record
Temperature  
Mean Temperature 33 °F 28 °F  
Max Temperature 37 °F 39 °F 63 °F (1974)
Min Temperature 28 °F 16 °F -19 °F (2007)
Degree Days  
Heating Degree Days 32 37  
Month to date heating degree days 244 270  
Since 1 July heating degree days 5345 5890  
Cooling Degree Days 0 0  
Month to date cooling degree days 0 0  
Year to date cooling degree days 0 0  
Moisture  
Dew Point 25 °F    
Average Humidity 72    
Maximum Humidity 92    
Minimum Humidity 52    
Precipitation  
Precipitation 0.07 in 0.09 in 0.89 in (1982)
Month to date precipitation 0.09 0.63  
Year to date precipitation 2.39 5.57  
Sea Level Pressure  
Sea Level Pressure 30.16 in    
Wind  
Wind Speed 8 mph (North)    
Max Wind Speed 15 mph    
Max Gust Speed 18 mph    
Visibility 4 miles    
Events Fog , Snow    
T = Trace of Precipitation, MM = Missing Value Source: NWS Daily Summary

Daily Weather History Graph

Daily Weather History Graph

Search for Another Location

Airport or City:

Trip Planner

Search our weather history database for the weather conditions in past years. The results will help you decide how hot, cold, wet, or windy it might be!

Date:

Astronomy

Mar. 07, 2013 Rise Set
Actual Time 6:20 AM EST 5:51 PM EST
Civil Twilight 5:51 AM EST 6:19 PM EST
Nautical Twilight 5:18 AM EST 6:52 PM EST
Astronomical Twilight 4:45 AM EST 7:26 PM EST
Moon 3:24 AM EST (3/7) 1:30 PM EST (3/7)
Length of Visible Light 12h 28m
Length of Day
11h 31m
Waning Crescent, 20% of the Moon is Illuminated
Mar 7
Waning Crescent
Mar 11
New
Mar 19
First Quarter
Mar 27
Full
Apr 3
Last Quarter

Hourly Weather History & Observations

Time (EST) Temp. Windchill Dew Point Humidity Pressure Visibility Wind Dir Wind Speed Gust Speed Precip Events Conditions
12:53 AM 34.0 °F 28.0 °F 19.9 °F 56% 30.17 in 10.0 mi NE 6.9 mph - N/A   Overcast
1:53 AM 34.0 °F 28.0 °F 19.9 °F 56% 30.17 in 10.0 mi NE 6.9 mph - N/A   Overcast
2:53 AM 34.0 °F 28.0 °F 19.0 °F 54% 30.16 in 10.0 mi NNE 6.9 mph - N/A   Overcast
3:53 AM 34.0 °F 27.2 °F 19.0 °F 54% 30.16 in 10.0 mi North 8.1 mph - N/A   Overcast
4:53 AM 34.0 °F 26.0 °F 19.0 °F 54% 30.16 in 10.0 mi NNE 10.4 mph - N/A   Overcast
5:53 AM 33.1 °F 26.1 °F 19.0 °F 56% 30.15 in 10.0 mi NNE 8.1 mph - N/A   Overcast
6:53 AM 33.1 °F 25.5 °F 19.0 °F 56% 30.16 in 10.0 mi NNE 9.2 mph - N/A   Overcast
7:53 AM 34.0 °F 25.5 °F 19.9 °F 56% 30.17 in 10.0 mi NNE 11.5 mph - N/A   Overcast
8:53 AM 34.0 °F 25.5 °F 19.9 °F 56% 30.16 in 10.0 mi North 11.5 mph - N/A   Mostly Cloudy
9:53 AM 35.1 °F 28.6 °F 19.9 °F 54% 30.16 in 10.0 mi NNE 8.1 mph - N/A   Overcast
10:53 AM 36.0 °F 31.1 °F 19.0 °F 50% 30.16 in 10.0 mi NNE 5.8 mph - N/A   Overcast
11:53 AM 37.0 °F 29.8 °F 21.0 °F 52% 30.16 in 10.0 mi NNE 10.4 mph - N/A   Overcast
12:53 PM 36.0 °F 27.5 °F 21.0 °F 55% 30.15 in 10.0 mi ENE 12.7 mph - N/A   Overcast
1:53 PM 36.0 °F 29.0 °F 21.9 °F 57% 30.14 in 10.0 mi North 9.2 mph - N/A   Overcast
2:53 PM 35.1 °F 26.9 °F 23.0 °F 61% 30.16 in 9.0 mi North 11.5 mph - N/A   Overcast
3:20 PM 33.8 °F 25.8 °F 26.6 °F 75% 30.14 in 2.5 mi NNE 10.4 mph - 0.00 in Snow Light Snow
3:27 PM 33.8 °F 25.8 °F 26.6 °F 75% 30.14 in 1.8 mi NNE 10.4 mph - 0.00 in Snow Light Snow
3:53 PM 32.0 °F 26.4 °F 27.0 °F 82% 30.18 in 1.2 mi North 5.8 mph - 0.00 in Snow Light Snow
4:01 PM 32.0 °F 26.4 °F 28.4 °F 87% 30.15 in 1.0 mi North 5.8 mph - 0.00 in Snow Light Snow
4:20 PM 32.0 °F 25.6 °F 28.4 °F 87% 30.15 in 2.5 mi North 6.9 mph - 0.00 in Snow Light Snow
4:26 PM 32.0 °F 25.6 °F 28.4 °F 87% 30.15 in 3.0 mi North 6.9 mph - 0.00 in Snow Light Snow
4:41 PM 32.0 °F 27.5 °F 28.4 °F 87% 30.16 in 2.0 mi North 4.6 mph - 0.00 in Snow Light Snow
4:48 PM 32.0 °F 27.5 °F 28.4 °F 87% 30.16 in 1.0 mi North 4.6 mph - 0.00 in Snow Light Snow
4:53 PM 32.0 °F 27.5 °F 28.0 °F 85% 30.19 in 0.8 mi North 4.6 mph - 0.00 in Snow Light Snow
5:14 PM 30.2 °F 24.3 °F 28.4 °F 93% 30.16 in 0.8 mi NNE 5.8 mph - 0.00 in Snow Light Snow
5:26 PM 30.2 °F 25.4 °F 28.4 °F 93% 30.16 in 1.0 mi NNE 4.6 mph - 0.01 in Snow Light Snow
5:30 PM 30.2 °F 25.4 °F 28.4 °F 93% 30.17 in 0.8 mi NNE 4.6 mph - 0.01 in Snow Light Snow
5:53 PM 30.9 °F 26.2 °F 28.0 °F 89% 30.20 in 0.5 mi North 4.6 mph - 0.02 in Fog , Snow Snow
6:09 PM 30.2 °F 25.4 °F 28.4 °F 93% 30.17 in 1.2 mi North 4.6 mph - 0.01 in Snow Light Snow
6:25 PM 30.2 °F 24.3 °F 28.4 °F 93% 30.17 in 1.8 mi North 5.8 mph - 0.01 in Snow Light Snow
6:38 PM 30.2 °F 22.6 °F 28.4 °F 93% 30.17 in 2.0 mi North 8.1 mph - 0.01 in Snow Light Snow
6:53 PM 30.0 °F 22.4 °F 27.0 °F 88% 30.20 in 2.0 mi North 8.1 mph - 0.01 in Snow Light Snow
7:08 PM 30.2 °F 22.6 °F 26.6 °F 86% 30.17 in 1.8 mi North 8.1 mph - 0.00 in Snow Light Snow
7:16 PM 30.2 °F 24.3 °F 26.6 °F 86% 30.17 in 2.0 mi North 5.8 mph - 0.00 in Snow Light Snow
7:38 PM 30.2 °F 22.6 °F 26.6 °F 86% 30.17 in 1.5 mi North 8.1 mph - 0.00 in Snow Light Snow
7:53 PM 30.0 °F 22.4 °F 27.0 °F 88% 30.19 in 1.2 mi North 8.1 mph - 0.01 in Snow Light Snow
8:30 PM 30.2 °F 22.6 °F 26.6 °F 86% 30.16 in 2.5 mi North 8.1 mph - 0.00 in Snow Light Snow
8:44 PM 28.4 °F 21.2 °F 26.6 °F 93% 30.16 in 1.2 mi North 6.9 mph - 0.00 in Snow Light Snow
8:53 PM 28.9 °F 22.8 °F 27.0 °F 92% 30.19 in 1.5 mi North 5.8 mph - 0.00 in Snow Light Snow
9:08 PM 28.4 °F 23.3 °F 26.6 °F 93% 30.16 in 1.5 mi North 4.6 mph - 0.00 in Snow Light Snow
9:39 PM 28.4 °F 19.7 °F 26.6 °F 93% 30.15 in 1.5 mi North 9.2 mph - 0.01 in Snow Light Snow
9:53 PM 28.9 °F 25.2 °F 27.0 °F 92% 30.18 in 1.2 mi NNW 3.5 mph - 0.01 in Snow Light Snow
10:03 PM 28.4 °F 23.3 °F 26.6 °F 93% 30.14 in 1.0 mi NNW 4.6 mph - 0.00 in Snow Light Snow
10:53 PM 28.9 °F 20.4 °F 26.1 °F 89% 30.16 in 1.0 mi North 9.2 mph - 0.01 in Snow Light Snow
11:40 PM 28.4 °F 20.4 °F 26.6 °F 93% 30.12 in 1.5 mi NNW 8.1 mph - 0.01 in Snow Light Snow
11:53 PM 28.9 °F 20.4 °F 26.1 °F 89% 30.15 in 1.8 mi North 9.2 mph - 0.01 in Snow Light Snow